Вернуться в каталог

STARLINK-32759

АктивенСвязьVLEO
NORAD 62751·PAYLOAD·🇺🇸 United States

Запущен Jan 21, 2025 с Cape Canaveral Space Force Station

Loading…

Ближайшие Пролёты (ближайшие 24 часа)

TLE

СвежийSource: CelesTrak SupGP

Эпоха: Sep 15, 2026, 02:38 UTC

1 62751C 25014S   26258.11020833 -.00006675  00000+0 -24180-3 0  2585
2 62751  42.9995 168.3643 0001192 269.7401  95.2562 15.27576103    11

Отслеживайте STARLINK-32759 в реальном времени с AllMySat

Download on the App Store